Showing default

SPOT 4, 25260

Orbit data source: Space-Track

SPOT 4, 25260 is a payload satellite owned by CNES (FR) in SSO that was launched on Tue, 24 Mar 1998 UTC via an ARIANE 40 launch vehicle from the French Guiana (FRGUI). Payload-class satellites include a variety of spacecraft equipped with specific instruments for various scientific and technological missions. These include communications satellites like Starlink; space stations such as the ISS; scientific satellites like the Hubble; Earth observation satellites from companies like Planet Labs, Umbra, and HawkEye 360; GPS; miniature CubeSats for education and research; and military/defense satellites.

Loading next visibility...
Identifier
25260, 1998-017A
Orbit
SSO
Country
Flag of FRFR
Related business
Manufacturer
MMS/Toulouse
Mission
Non-operational Civil Imaging
Bus & Motor
SPOT, SPOT AOCS
Mass
2,755 kg wet, 2,600 kg dry
Launch date (UTC)
1998-03-24 (28 years ago)
Launch vehicle
ARIANE 40
Launch site
French Guiana (FRGUI)
Object type
Payload
Rocket body
Debris
Shape & HBR
Box + 1 Pan, 4.0 m
Radar Cross Section
37.816 m², Large (>1 m²)

Expand to show TLE details & history
Last TLE update: 15 hours ago

TLE from 15 hours ago
0 SPOT 4
1 25260U 98017A   26171.29567514  .00000242  00000-0  65234-4 0  9998
2 25260  98.2469 266.9656 0011922 207.6396 152.4170 14.56104546479762
Epoch: 2026-06-20T07:05Z
TLE epoch observation values (Epoch: 2026-06-20T07:05:46.332Z)
Latitude
0.00007°
Longitude
-107.9898°
Altitude
716.248 km
Speed
7.493 km/s
True Right ascension
17h 47m 51s
True Declination
0° 00' 00"
Sunlit
Object was in full shadow at epoch
Visualization orbit readout
Latitude
Unknown
Longitude
Unknown
Altitude
Unknown
Speed
Unknown
Apparent Right ascension
Unknown
Apparent Declination
Unknown
Sunlit
N/A
Visualization observer readout
Local Sidereal Time
08:41:55
Azimuth
Unknown
Elevation
Unknown
Doppler factor
Unknown
Orbital elements
Apogee altitude
711.311 km
Perigee altitude
694.427 km
Semi-major axis
7,081.006 km
Eccentricity
0.00119
Inclination
98.2469°
RAAN
266.9656°
Arg. of periapsis
207.6396°
True anomaly
152.48017°
Mean anomaly
152.417°
Eccentric anomaly
152.4486°
Mean motion
3.64251 °/min
Orbital period
98.83 mins
BSTAR
0.000065234
Loading maneuver chart data...
Computing Atmospheric mass density...
Loading historical data...
Loading historical data...
Loading historical data...
Loading historical data...
Loading historical data...
Loading historical data...
Loading historical data...

Documentation

Showing up to 5 results
|